Date String (YYYY-MM-DD hh:mm:ss) UTC,Instrument flags,Ambient pressure (hPa),Sample flow (lpm),Bypass flow (lpm),Sample temperature (°C),Ambient temperature (°C),ASC tube jacket temperature (°C),LED temperature (°C),Box temperature (°C),Sample RH (%),Span deviation,Mass concentration (μg/m³),Mass concentration (μg/m³),Mass concentration (μg/m³)
DateTimeUTC,F1_M11,P_M11,Q1_M11,Q2_M11,T1_M11,T2_M11,T3_M11,T4_M11,T5_M11,U1_M11,ZSPAN_M11,X2_M11,X0_M11,X1_M11
2021-12-10 19:00:00,,0812.9,5.00,0.00,22.7,22.0,00.0,31.8,24.4,13.6,0000.0,0004.95,0014.76,0003.82
2021-12-10 19:01:00,,0812.9,4.99,0.00,22.7,22.0,00.0,31.8,24.4,13.4,0000.0,0005.00,0014.56,0003.82
2021-12-10 19:02:00,,0813.0,5.00,0.00,22.7,22.0,00.0,31.7,24.4,13.3,0000.0,0004.97,0014.81,0003.82
2021-12-10 19:03:00,,0813.0,5.00,0.00,22.7,22.0,00.0,31.7,24.4,13.3,0000.0,0004.95,0015.48,0003.81
2021-12-10 19:04:00,,0813.2,4.99,0.00,22.7,22.0,00.0,31.7,24.3,13.2,0000.0,0004.91,0015.87,0003.80
2021-12-10 19:05:00,,0812.9,5.00,0.00,22.7,22.0,00.0,31.7,24.3,13.1,0000.0,0004.89,0015.85,0003.80
2021-12-10 19:06:00,,0813.0,5.00,0.00,22.6,22.0,00.0,31.7,24.4,13.0,0000.0,0004.93,0015.30,0003.80
2021-12-10 19:07:00,,0813.1,5.01,0.00,22.6,22.0,00.0,31.7,24.3,13.2,0000.0,0004.90,0015.28,0003.79
2021-12-10 19:08:00,,0813.1,4.99,0.00,22.6,22.0,00.0,31.7,24.3,13.1,0000.0,0004.87,0014.71,0003.80
2021-12-10 19:09:00,,0813.1,4.99,0.00,22.6,22.0,00.0,31.7,24.3,13.2,0000.0,0004.88,0015.05,0003.80
2021-12-10 19:10:00,,0813.1,5.01,0.00,22.6,22.0,00.0,31.7,24.3,13.1,0000.0,0004.92,0015.31,0003.80
2021-12-10 19:11:00,,0813.1,4.99,0.00,22.6,21.9,00.0,31.7,24.3,13.4,0000.0,0004.96,0015.58,0003.79
2021-12-10 19:12:00,,0813.1,5.00,0.00,22.6,21.9,00.0,31.7,24.2,13.3,0000.0,0004.95,0015.68,0003.78
2021-12-10 19:13:00,,0813.1,5.01,0.00,22.6,21.9,00.0,31.7,24.2,13.5,0000.0,0004.96,0015.93,0003.78
2021-12-10 19:14:00,,0813.1,5.00,0.00,22.5,21.9,00.0,31.6,24.2,13.3,0000.0,0004.92,0014.67,0003.76
2021-12-10 19:15:00,,0813.1,4.99,0.00,22.5,21.9,00.0,31.6,24.2,13.6,0000.0,0004.88,0013.78,0003.74
2021-12-10 19:16:00,,0813.1,5.02,0.00,22.5,21.8,00.0,31.6,24.2,13.4,0000.0,0004.82,0013.83,0003.72
2021-12-10 19:17:00,,0813.1,4.99,0.00,22.5,21.8,00.0,31.6,24.2,12.3,0000.0,0004.75,0013.00,0003.68
2021-12-10 19:18:00,,0813.2,5.00,0.00,22.5,21.8,00.0,31.6,24.2,12.3,0000.0,0004.71,0012.57,0003.65
2021-12-10 19:19:00,,0813.3,4.99,0.00,22.5,21.8,00.0,31.6,24.2,11.6,0000.0,0004.66,0012.43,0003.60
2021-12-10 19:20:00,,0813.2,5.01,0.00,22.5,21.8,00.0,31.6,24.2,11.4,0000.0,0004.54,0011.57,0003.54
2021-12-10 19:21:00,,0813.1,5.00,0.00,22.5,21.8,00.0,31.6,24.2,11.2,0000.0,0004.44,0010.92,0003.49
2021-12-10 19:22:00,,0813.1,4.99,0.00,22.5,21.8,00.0,31.6,24.2,11.4,0000.0,0004.32,0010.25,0003.44
2021-12-10 19:23:00,,0813.1,4.99,0.00,22.5,21.9,00.0,31.6,24.3,09.6,0000.0,0004.19,0010.97,0003.37
2021-12-10 19:24:00,,0813.1,5.01,0.00,22.6,22.0,00.0,31.6,24.3,08.7,0000.0,0004.05,0011.57,0003.28
2021-12-10 19:25:00,,0813.1,5.00,0.00,22.6,22.0,00.0,31.6,24.4,08.3,0000.0,0003.94,0011.50,0003.18
2021-12-10 19:26:00,,0813.1,4.99,0.00,22.6,22.1,00.0,31.6,24.5,08.1,0000.0,0003.82,0010.90,0003.04
2021-12-10 19:27:00,,0813.2,5.00,0.00,22.7,22.1,00.0,31.6,24.5,08.1,0000.0,0003.72,0010.59,0002.85
2021-12-10 19:28:00,,0813.2,5.01,0.00,22.7,22.2,00.0,31.6,24.5,07.9,0000.0,0003.60,0010.33,0002.70
2021-12-10 19:29:00,,0813.2,5.01,0.00,22.8,22.2,00.0,31.6,24.6,07.9,0000.0,0003.47,0010.12,0002.56
2021-12-10 19:30:00,,0813.2,4.99,0.00,22.8,22.2,00.0,31.6,24.6,07.9,0000.0,0003.32,0009.87,0002.42
2021-12-10 19:31:00,,0813.1,4.99,0.00,22.8,22.3,00.0,31.7,24.7,07.9,0000.0,0003.24,0009.88,0002.30
2021-12-10 19:32:00,,0813.1,5.00,0.00,22.9,22.3,00.0,31.7,24.7,07.2,0000.0,0003.12,0009.73,0002.15
2021-12-10 19:33:00,,0813.1,4.99,0.00,22.9,22.3,00.0,31.7,24.7,07.1,0000.0,0002.88,0009.19,0002.00
2021-12-10 19:34:00,,0813.1,5.01,0.00,22.9,22.3,00.0,31.7,24.7,07.0,0000.0,0002.73,0007.69,0001.89
2021-12-10 19:35:00,,0813.0,4.98,0.00,22.9,22.3,00.0,31.7,24.6,06.5,0000.0,0002.60,0006.11,0001.80
2021-12-10 19:36:00,,0813.1,5.01,0.00,22.9,22.3,00.0,31.8,24.6,06.4,0000.0,0002.50,0007.22,0001.74
2021-12-10 19:37:00,,0813.1,4.99,0.00,22.9,22.3,00.0,31.8,24.6,06.3,0000.0,0002.42,0007.46,0001.71
2021-12-10 19:38:00,,0812.9,4.99,0.00,22.9,22.2,00.0,31.8,24.6,06.4,0000.0,0002.33,0007.34,0001.68
2021-12-10 19:39:00,,0813.0,5.00,0.00,22.9,22.2,00.0,31.8,24.6,06.4,0000.0,0002.27,0007.95,0001.63
2021-12-10 19:40:00,,0813.2,5.00,0.00,22.9,22.2,00.0,31.8,24.6,06.4,0000.0,0002.20,0008.08,0001.56
2021-12-10 19:41:00,,0813.3,5.01,0.00,22.9,22.1,00.0,31.8,24.5,06.3,0000.0,0002.15,0008.00,0001.51
2021-12-10 19:42:00,,0813.3,4.99,0.00,22.9,22.0,00.0,31.8,24.5,06.4,0000.0,0002.06,0007.76,0001.45
2021-12-10 19:43:00,,0813.3,5.01,0.00,22.9,22.0,00.0,31.8,24.6,06.5,0000.0,0001.99,0007.62,0001.44
2021-12-10 19:44:00,,0813.2,4.99,0.00,22.9,22.0,00.0,31.8,24.5,06.2,0000.0,0002.00,0007.70,0001.43
2021-12-10 19:45:00,,0813.1,5.00,0.00,22.9,22.0,00.0,31.8,24.5,06.0,0000.0,0001.98,0008.10,0001.42
2021-12-10 19:46:00,,0813.2,5.00,0.00,22.9,21.9,00.0,31.9,24.6,06.0,0000.0,0001.93,0008.07,0001.42
2021-12-10 19:47:00,,0813.4,5.00,0.00,22.9,21.9,00.0,31.9,24.6,06.1,0000.0,0001.94,0006.70,0001.42
2021-12-10 19:48:00,,0813.3,5.00,0.00,22.8,21.9,00.0,31.8,24.4,06.4,0000.0,0001.95,0006.18,0001.41
2021-12-10 19:49:00,,0813.5,4.99,0.00,22.8,21.8,00.0,31.8,24.5,06.5,0000.0,0001.92,0006.56,0001.39
2021-12-10 19:50:00,,0813.6,5.01,0.00,22.8,21.8,00.0,31.8,24.5,06.4,0000.0,0001.92,0006.03,0001.39
2021-12-10 19:51:00,,0813.7,4.99,0.00,22.8,21.8,00.0,31.8,24.4,06.4,0000.0,0001.90,0005.04,0001.40
2021-12-10 19:52:00,,0814.0,5.01,0.00,22.8,21.8,00.0,31.8,24.4,05.9,0000.0,0001.94,0005.18,0001.40
2021-12-10 19:53:00,,0813.6,5.00,0.00,22.7,21.8,00.0,31.8,24.3,05.8,0000.0,0001.97,0005.23,0001.41
2021-12-10 19:54:00,,0813.5,5.01,0.00,22.7,21.7,00.0,31.8,24.3,06.1,0000.0,0001.98,0005.25,0001.43
2021-12-10 19:55:00,,0813.7,5.00,0.00,22.7,21.7,00.0,31.8,24.3,05.6,0000.0,0002.04,0005.43,0001.44
2021-12-10 19:56:00,,0813.7,4.99,0.00,22.6,21.7,00.0,31.8,24.2,05.8,0000.0,0002.09,0005.06,0001.45
2021-12-10 19:57:00,,0813.8,5.01,0.00,22.6,21.7,00.0,31.8,24.2,05.8,0000.0,0002.14,0004.44,0001.48
2021-12-10 19:58:00,,0814.1,5.00,0.00,22.6,21.6,00.0,31.7,24.2,05.5,0000.0,0002.18,0004.69,0001.49
2021-12-10 19:59:00,,0814.0,5.00,0.00,22.6,21.6,00.0,31.7,24.2,05.6,0000.0,0002.14,0004.75,0001.49
